Regional Weather Roundup
Issued by NWS Kansas City/Pleasant Hill, MO

Home | Current Version | Previous Version | Graphics & Text | Print | Product List | Glossary Off
Versions: 1 2 3 4 5 6 7 8 9 10 11 12 13 14 15 16 17 18 19 20 21 22 23 24 25 26 27 28 29 30 31 32 33 34 35 36 37 38 39 40 41 42 43 44 45 46 47 48 49 50

000
ASUS43 KEAX 230111
RWREAX

WEATHER ROUNDUP FOR EASTERN KANSAS AND NORTHWEST MISSOURI
NATIONAL WEATHER SERVICE KANSAS CITY/PLEASANT HILL MO
800 PM CDT FRI MAY 22 2015

KSZ040-057-103>105-MOZ028-029-037-043-230200-
...KANSAS CITY METROPOLITAN AREA...

CITY           SKY/WX    TMP DP  RH WIND       PRES   REMARKS
K.C. INTL      CLOUDY    62  49  62 SE8       30.20F
K.C. DOWNTOWN  CLOUDY    64  48  56 E8        30.19F
LEES SUMMIT    CLOUDY    61  52  72 E7        30.20F
OLATHE - IXD   CLOUDY    62  51  67 E9        30.19F
OLATHE - OJC   CLOUDY    62  51  67 E7        30.18F
LAWRENCE       CLOUDY    62  51  67 SE6       30.19S

$$

MOZ001>008-011>017-020>025-030>033-038>040-044>046-053-054-230200-
...NORTHERN AND CENTRAL MISSOURI...

CITY           SKY/WX    TMP DP  RH WIND       PRES   REMARKS
ST. JOSEPH     CLOUDY    64  50  60 SE9       30.19F
MOSBY          CLOUDY    63  50  63 E3        30.21F
WARRENSBURG    CLOUDY    61  54  77 E3        30.21F
WHITEMAN AFB   DRIZZLE   63  55  77 E2        30.20F
CLINTON        CLOUDY    64  55  72 E6        30.21S
SEDALIA        CLOUDY    64  55  72 E5        30.23S
WARSAW         NOT AVBL
CHILLICOTHE      N/A     66  56  70 CALM      30.23S
KIRKSVILLE     MOCLDY    63  54  72 SW5       30.24S

$$

MOZ041-047>049-056>058-063>065-088>090-097-230200-
...EASTERN AND SOUTHERN MISSOURI...

CITY           SKY/WX    TMP DP  RH WIND       PRES   REMARKS
ST. LOUIS INTL CLOUDY    71  49  45 W6        30.24R
SPIRIT OF STL  CLOUDY    66  58  75 CALM      30.23R
COLUMBIA       CLOUDY    65  52  62 SE3       30.23R
JEFFERSON CITY CLOUDY    67  52  58 E5        30.22S
ROLLA          CLOUDY    64  53  67 E5        30.22S
OSAGE BEACH    CLOUDY    64  52  63 E5        30.21F
SPRINGFIELD    CLOUDY    62  48  60 SE9       30.19S
BRANSON        MOCLDY    61  50  67 SE10      30.21S
JOPLIN         CLOUDY    63  50  62 E6        30.18S
WEST PLAINS    CLOUDY    62  48  60 E5        30.24F

$$

IAZ060-094-KSZ022-034>040-054-083-096-NEZ052-066-093-230200-
...KANSAS...SOUTHEAST NEBRASKA AND IOWA...

CITY           SKY/WX    TMP DP  RH WIND       PRES   REMARKS
TOPEKA         CLOUDY    62  48  60 E8        30.18F
MANHATTAN      CLOUDY    62  47  57 SE9       30.15S
EMPORIA        CLOUDY    60  48  64 E10       30.16F
CHANUTE        CLOUDY    61  50  67 E5        30.17S
WICHITA        CLOUDY    60  52  74 SE14      30.12S
OMAHA          CLOUDY    65  43  44 SE8       30.17F
LINCOLN        CLOUDY    62  45  53 SE9       30.18S
FALLS CITY     CLOUDY    63  46  54 SE7       30.18S
LAMONI         MOCLDY    66  55  67 CALM      30.22R
DES MOINES     CLOUDY    68  44  42 SW14      30.20R

$$




USA.gov is the U.S. government's official web portal to all federal, state and local government web resources and services.